Showing default

DOJO, 65302

Orbit data source: Space-Track

DOJO, 65302 is a payload satellite owned by E-Space (RW) in SSO that was launched on Sat, 23 Aug 2025 UTC via an ELECTRON launch vehicle from the Rocket Lab Launch Complex (RLLC). Payload-class satellites include a variety of spacecraft equipped with specific instruments for various scientific and technological missions. These include communications satellites like Starlink; space stations such as the ISS; scientific satellites like the Hubble; Earth observation satellites from companies like Planet Labs, Umbra, and HawkEye 360; GPS; miniature CubeSats for education and research; and military/defense satellites.

Loading next visibility...
Identifier
65302, 2025-185F
Orbit
SSO
Country
Flag of RWRW / RWA
Related business
Manufacturer
E-Space
Mission
Operational Commercial Communications
Bus & Motor
CALISTUS, Unknown motor
Mass
~30 kg wet, ~30 kg dry
Launch date (UTC)
2025-08-23 (10 months ago)
Launch vehicle
ELECTRON
Launch site
Rocket Lab Launch Complex (RLLC)
Object type
Payload
Rocket body
Debris
Shape & HBR
Box + 1 Pan, 1.1 m
Radar Cross Section
0.475 m², Large (>1 m²)

Expand to show TLE details & history
Last TLE update: 6 hours ago

TLE from 6 hours ago
0 DOJO
1 65302U 25185F   26162.79767701  .00010408  00000-0  14030-2 0  9991
2 65302  97.9653 246.2327 0015629 106.0356 254.2578 14.79254810 43042
Epoch: 2026-06-11T19:08Z
TLE epoch observation values (Epoch: 2026-06-11T19:08:39.293Z)
Latitude
-0.00002°
Longitude
58.93267°
Altitude
637.685 km
Speed
7.538 km/s
True Right ascension
16h 24m 55s
True Declination
0° 00' 00"
Sunlit
Object was in full shadow at epoch
Visualization orbit readout
Latitude
Unknown
Longitude
Unknown
Altitude
Unknown
Speed
Unknown
Apparent Right ascension
Unknown
Apparent Declination
Unknown
Sunlit
N/A
Visualization observer readout
Local Sidereal Time
11:32:08
Azimuth
Unknown
Elevation
Unknown
Doppler factor
Unknown
Orbital elements
Apogee altitude
639.673 km
Perigee altitude
617.771 km
Semi-major axis
7,006.859 km
Eccentricity
0.00156
Inclination
97.9653°
RAAN
246.2327°
Arg. of periapsis
106.0356°
True anomaly
254.08551°
Mean anomaly
254.2578°
Eccentric anomaly
254.17165°
Mean motion
3.70048 °/min
Orbital period
97.28 mins
BSTAR
0.001403
Loading maneuver chart data...
Computing Atmospheric mass density...
Loading historical data...
Loading historical data...
Loading historical data...
Loading historical data...
Loading historical data...
Loading historical data...
Loading historical data...

Documentation

Showing up to 5 results
|